Main page
METAR-TAF:

METAR-TAF

Airports :

Oil platform

Troll C, Norway

latitude: 60-53-09N, longitude: 3-36-35E, elevation: 20 m

Current weather observation

The report was made 19 minutes ago, at 03:20 UTC
Wind 27 kt from the West/Northwest
Temperature 9°C
Humidity 66%
Pressure 1004 hPa
Visibility 10 km or more

METAR: ENQC 230320Z AUTO 30027KT 9999NDV FEW025/// SCT039/// BKN083/// 09/03 Q1004 W///S5

Time: 05:39 (03:39 UTC)


TAF: missing

Weather observations and forecasts of more than 4000 airports (METAR and TAF reports).

The available stations are represented by yellow and red dots on the map.

Hover mouse over dot to see the name of the station.

Then click to see weather observations and forecasts.

To change the map : click on the green buttons with a black cross to zoom in, on the green button with a dash to zoom out, or on the green arrows for adjacent maps.


METAR-TAF: